Flag for U.S.A. Weather past 2 weeks in Rancho Cucamonga, California, U.S.A.

Now
74 °F

Partly sunny.


Feels Like: 77 °F
Forecast: 62 / 83 °F
Wind: No wind

Location: Ontario International Airport

Current Time: Sep 19, 2014 at 11:59:48 AM

Latest Report: Sep 19, 2014 at 10:53 AM


Visibility: 10 mi

Pressure: 29.88 "Hg

Humidity: 60%

Dew point: 59 °F

Location of Rancho CucamongaLocation

Historic Weather in Rancho Cucamonga — Graph

°F

Rancho Cucamonga temperature yesterday

Maximum temperature yesterday: 85 °F (at 2:53 PM)
Minimum temperature yesterday: 67 °F (at 6:53 AM)
Average temperature yesterday: 75 °F

Past Weeks' High & Low Weather Summary

 TemperatureHumidityPressure
High107 °F (Sep 14, 2:53 PM)87% (Sep 5, 5:53 AM)29.90 "Hg (Sep 5, 5:53 AM)
Low63 °F (Sep 5, 5:53 AM)13% (Sep 13, 1:53 PM)29.62 "Hg (Sep 14, 2:53 PM)
Average83 °F42%29.77 "Hg
* Reported Sep 4 9:53 AM — Sep 19 9:53 AM, Rancho Cucamonga, Weather by CustomWeather, © 2014

Note: Actual official high and low records may vary slightly from our data, if they occured in-between our weather recording intervals... More about our weather records

Advertising

Rancho Cucamonga weather history for previous 24 hours

 ConditionsComfort  
Time TempWeatherWind HumidityBarometerVisibility
9:53 AM
Sep 19
73 °FPartly sunny.7 mph66%29.89 "Hg10 mi
8:53 AM70 °FOvercast.3 mph73%29.89 "Hg10 mi
7:53 AM69 °FOvercast.5 mph73%29.87 "Hg10 mi
6:53 AM69 °FOvercast.5 mph73%29.85 "Hg10 mi
5:53 AM69 °FMostly cloudy.5 mph73%29.84 "Hg10 mi
4:53 AM68 °FMostly cloudy.5 mph78%29.84 "Hg10 mi
3:53 AM69 °FOvercast.6 mph73%29.84 "Hg10 mi
2:53 AM69 °FOvercast.5 mph73%29.83 "Hg10 mi
1:53 AM68 °FPassing clouds.8 mph76%29.84 "Hg10 mi
12:53 AM67 °FPassing clouds.7 mph81%29.84 "Hg10 mi
11:53 PM
Sep 18
68 °FPassing clouds.3 mph82%29.83 "Hg10 mi
10:53 PM69 °FPassing clouds.10 mph81%29.83 "Hg10 mi
9:53 PM70 °FPassing clouds.8 mph79%29.83 "Hg10 mi
8:53 PM71 °FPassing clouds.10 mph73%29.82 "Hg10 mi
7:53 PM74 °FPassing clouds.16 mph64%29.80 "Hg10 mi
6:53 PM78 °FPassing clouds.14 mph56%29.78 "Hg10 mi
5:53 PM81 °FPassing clouds.13 mph53%29.76 "Hg10 mi
4:53 PM84 °FPassing clouds.12 mph48%29.75 "Hg10 mi
3:53 PM85 °FPassing clouds.13 mph45%29.75 "Hg10 mi
2:53 PM85 °FPassing clouds.14 mph43%29.77 "Hg10 mi
1:53 PM84 °FPassing clouds.12 mph43%29.79 "Hg10 mi
12:53 PM82 °FPassing clouds.9 mph44%29.81 "Hg10 mi
11:53 AM80 °FPassing clouds.7 mph44%29.83 "Hg10 mi
Weather by CustomWeather, © 2014

See weather overviewHow to use our weather pages